TimeAKDT,TemperatureF,Dew PointF,Humidity,Sea Level PressureIn,VisibilityMPH,Wind Direction,Wind SpeedMPH,Gust SpeedMPH,PrecipitationIn,Events,Conditions,WindDirDegrees,DateUTC
12:53 AM,34.0,32.0,92,30.31,8.0,NNW,19.6,-,N/A,,Overcast,330,2012-10-08 08:53:00
1:53 AM,34.0,30.9,89,30.32,9.0,North,19.6,-,N/A,,Overcast,350,2012-10-08 09:53:00
2:53 AM,33.1,30.0,89,30.34,9.0,North,16.1,-,N/A,,Overcast,350,2012-10-08 10:53:00
3:53 AM,33.1,30.0,89,30.35,9.0,North,20.7,-,N/A,,Overcast,350,2012-10-08 11:53:00
4:53 AM,32.0,28.9,88,30.36,9.0,North,24.2,-,N/A,,Overcast,350,2012-10-08 12:53:00
5:53 AM,32.0,28.0,85,30.38,9.0,North,23.0,-,N/A,,Overcast,360,2012-10-08 13:53:00
6:53 AM,30.9,27.0,85,30.41,9.0,North,16.1,-,N/A,,Partly Cloudy,360,2012-10-08 14:53:00
7:53 AM,30.0,27.0,88,30.43,9.0,North,11.5,-,N/A,,Clear,10,2012-10-08 15:53:00
8:53 AM,30.0,26.1,85,30.44,9.0,North,19.6,-,N/A,,Clear,360,2012-10-08 16:53:00
9:53 AM,28.9,25.0,85,30.48,8.0,North,16.1,-,N/A,,Clear,360,2012-10-08 17:53:00
10:53 AM,30.0,26.1,85,30.49,8.0,North,17.3,-,N/A,,Clear,10,2012-10-08 18:53:00
11:53 AM,30.9,26.1,82,30.51,8.0,North,16.1,-,N/A,,Clear,350,2012-10-08 19:53:00
12:53 PM,32.0,25.0,75,30.53,8.0,North,19.6,-,N/A,,Clear,360,2012-10-08 20:53:00
1:53 PM,32.0,25.0,75,30.55,8.0,North,19.6,-,N/A,,Clear,360,2012-10-08 21:53:00
2:53 PM,33.1,25.0,72,30.55,8.0,North,19.6,-,N/A,,Clear,350,2012-10-08 22:53:00
3:53 PM,33.1,25.0,72,30.56,8.0,NNE,18.4,-,N/A,,Clear,20,2012-10-08 23:53:00
4:53 PM,33.1,24.1,70,30.56,8.0,NNE,21.9,-,N/A,,Clear,20,2012-10-09 00:53:00
5:39 PM,33.8,26.6,75,30.57,8.0,North,16.1,-,N/A,,Mostly Cloudy,350,2012-10-09 01:39:00
5:53 PM,33.1,27.0,78,30.58,8.0,North,16.1,-,N/A,,Mostly Cloudy,360,2012-10-09 01:53:00
6:03 PM,33.8,26.6,75,30.58,8.0,North,18.4,-,N/A,,Scattered Clouds,10,2012-10-09 02:03:00
6:53 PM,32.0,26.1,79,30.60,8.0,North,16.1,-,N/A,,Clear,10,2012-10-09 02:53:00
7:53 PM,30.9,26.1,82,30.62,8.0,North,9.2,-,N/A,,Clear,10,2012-10-09 03:53:00
8:53 PM,30.0,26.1,85,30.62,9.0,North,12.7,-,N/A,,Clear,10,2012-10-09 04:53:00
9:53 PM,28.9,25.0,85,30.63,9.0,North,15.0,-,N/A,,Clear,10,2012-10-09 05:53:00
10:53 PM,28.9,25.0,85,30.65,9.0,North,15.0,-,N/A,,Clear,10,2012-10-09 06:53:00